FW0403 Weather Reports


Display with metric or nautical units.
time (UTC)temp
F
wind
direction
speed
MPH
gust
MPH
rain 1hr
in
rain 24hr
in
rain mn
in
humidity
%
barometer
mb
20260506184535 82 144 5.0 9.0 0.00 0.00 0.00 85 1009.6
20260506184015 82 152 4.0 9.0 0.00 0.00 0.00 85 1009.6
20260506183500 82 157 3.0 6.0 0.00 0.00 0.00 85 1009.6
20260506182333 81 179 1.0 5.0 0.00 0.00 0.00 85 1009.8
20260506181830 81 173 0.0 4.0 0.00 0.00 0.00 85 1009.8
20260506181322 81 130 0.0 3.0 0.00 0.00 0.00 85 1009.9
20260506180138 81 66 1.0 3.0 0.00 0.00 0.00 85 1009.9
20260506175619 81 87 1.0 3.0 0.00 0.00 0.00 85 1010.0
20260506175111 81 219 0.0 2.0 0.00 0.00 0.00 85 1009.9
20260506174604 81 116 0.0 2.0 0.00 0.00 0.00 85 1009.9
20260506173417 82 103 0.0 3.0 0.00 0.00 0.00 85 1010.2
20260506172920 82 80 0.0 4.0 0.00 0.00 0.00 85 1010.2
20260506172418 82 163 0.0 4.0 0.00 0.00 0.00 86 1010.3
20260506171915 82 55 1.0 4.0 0.00 0.00 0.00 86 1010.1
20260506171418 82 133 0.0 4.0 0.00 0.00 0.00 86 1010.1
20260506170924 81 179 0.0 4.0 0.00 0.00 0.00 86 1010.1
20260506170428 81 155 0.0 4.0 0.00 0.00 0.00 86 1010.2
20260506165930 81 210 0.0 6.0 0.00 0.00 0.00 86 1010.1
20260506164751 81 117 2.0 6.0 0.00 0.00 0.00 87 1010.1
20260506164229 81 101 2.0 6.0 0.00 0.00 0.00 87 1010.0
20260506163709 81 140 3.0 5.0 0.00 0.00 0.00 87 1010.2
20260506163212 81 151 3.0 5.0 0.00 0.00 0.00 87 1010.2
20260506162706 80 2 3.0 7.0 0.00 0.00 0.00 87 1010.2
20260506162213 80 150 3.0 7.0 0.00 0.00 0.00 87 1010.1
20260506161717 80 161 3.0 7.0 0.00 0.00 0.00 87 1010.1
20260506161222 80 161 4.0 7.0 0.00 0.00 0.00 87 1010.0
20260506160042 80 145 2.0 6.0 0.00 0.00 0.00 87 1009.9
20260506154937 80 144 3.0 6.0 0.00 0.00 0.00 87 1009.8
20260506154439 80 167 3.0 8.0 0.00 0.00 0.00 87 1009.7
20260506153928 80 2 4.0 8.0 0.00 0.00 0.00 88 1009.8
20260506153412 80 146 4.0 9.0 0.00 0.00 0.00 88 1009.6
20260506152914 80 162 4.0 9.0 0.00 0.00 0.00 88 1009.5
20260506152413 80 177 5.0 9.0 0.00 0.00 0.00 88 1009.5
20260506151916 80 195 5.0 9.0 0.00 0.00 0.00 88 1009.4
20260506151417 80 205 5.0 9.0 0.00 0.00 0.00 88 1009.3
20260506150905 80 140 5.0 9.0 0.00 0.00 0.00 88 1009.1
20260506150349 80 144 5.0 9.0 0.00 0.00 0.00 88 1009.2
20260506145850 80 157 5.0 9.0 0.00 0.00 0.00 88 1009.3
20260506145336 80 132 4.0 9.0 0.00 0.00 0.00 88 1009.3
20260506144834 79 151 5.0 9.0 0.00 0.00 0.00 88 1009.3
20260506144323 79 156 5.0 9.0 0.00 0.00 0.00 88 1009.3
20260506143808 79 124 5.0 9.0 0.00 0.00 0.00 88 1009.3
20260506142635 79 2 5.0 9.0 0.00 0.00 0.00 88 1009.3
20260506141456 79 187 4.0 9.0 0.00 0.00 0.00 88 1009.2
20260506140953 79 157 5.0 9.0 0.00 0.00 0.00 88 1009.3
20260506140434 79 2 5.0 9.0 0.00 0.00 0.00 88 1009.2
20260506135923 79 149 4.0 9.0 0.00 0.00 0.00 88 1009.2
20260506135416 79 148 4.0 6.0 0.00 0.00 0.00 88 1009.3
20260506134904 79 97 3.0 6.0 0.00 0.00 0.00 88 1009.2
20260506134408 79 153 2.0 5.0 0.00 0.00 0.00 88 1009.2
20260506133846 79 143 1.0 5.0 0.00 0.00 0.00 88 1009.3
20260506133338 79 186 0.0 3.0 0.00 0.00 0.00 88 1009.3
20260506132842 79 121 1.0 6.0 0.00 0.00 0.00 88 1009.3
20260506132324 79 171 3.0 6.0 0.00 0.00 0.00 88 1009.3
20260506131828 79 184 3.0 6.0 0.00 0.00 0.00 88 1009.3
20260506131323 79 165 3.0 6.0 0.00 0.00 0.00 88 1009.3
20260506130819 79 170 3.0 5.0 0.00 0.00 0.00 88 1009.3
20260506130314 79 180 3.0 5.0 0.00 0.00 0.00 88 1009.3
20260506125753 79 191 3.0 5.0 0.00 0.00 0.00 88 1009.4
20260506124523 79 162 3.0 7.0 0.00 0.00 0.00 88 1009.3
20260506124003 79 156 3.0 6.0 0.00 0.00 0.00 88 1009.2
20260506123447 79 130 3.0 6.0 0.00 0.00 0.00 88 1009.2
20260506122928 79 179 3.0 6.0 0.00 0.00 0.00 88 1009.1
20260506122407 79 2 4.0 8.0 0.00 0.00 0.00 88 1008.9
20260506121910 79 190 4.0 8.0 0.00 0.00 0.00 88 1008.9
20260506121400 79 197 4.0 8.0 0.00 0.00 0.00 88 1008.8
20260506120855 79 188 4.0 6.0 0.00 0.00 0.00 88 1008.7
20260506120342 79 141 4.0 6.0 0.00 0.00 0.00 88 1008.6
20260506115230 79 138 4.0 6.0 0.00 0.00 0.00 88 1008.4
20260506114717 79 165 4.0 6.0 0.00 0.00 0.00 87 1008.3
20260506113601 79 169 2.0 5.0 0.00 0.00 0.00 88 1008.2
20260506113100 79 145 3.0 5.0 0.00 0.00 0.00 88 1008.2
20260506112556 79 151 3.0 5.0 0.00 0.00 0.00 88 1008.2
20260506112052 79 150 3.0 9.0 0.00 0.00 0.00 87 1008.3
20260506110930 79 181 5.0 9.0 0.00 0.00 0.00 87 1008.2
20260506110415 79 164 5.0 9.0 0.00 0.00 0.00 87 1008.1
20260506105907 79 209 4.0 8.0 0.00 0.00 0.00 87 1008.1
20260506105407 79 2 4.0 8.0 0.00 0.00 0.00 87 1008.1
20260506104851 79 150 4.0 8.0 0.00 0.00 0.00 87 1008.0
20260506104333 79 169 4.0 8.0 0.00 0.00 0.00 87 1008.0
20260506103833 79 159 4.0 8.0 0.00 0.00 0.00 87 1008.0
20260506103322 79 171 4.0 6.0 0.00 0.00 0.00 87 1008.0
20260506102822 79 150 4.0 6.0 0.00 0.00 0.00 87 1008.0
20260506102324 79 166 4.0 8.0 0.00 0.00 0.00 87 1007.9
20260506101828 79 173 4.0 8.0 0.00 0.00 0.00 87 1007.9
20260506101316 79 174 4.0 8.0 0.00 0.00 0.00 87 1007.8
20260506100804 79 132 4.0 8.0 0.00 0.00 0.00 87 1007.8
20260506100249 79 128 4.0 9.0 0.00 0.00 0.00 87 1007.9
20260506093804 79 144 5.0 9.0 0.00 0.00 0.00 87 1007.7
20260506092643 79 165 4.0 6.0 0.00 0.00 0.00 87 1007.7
20260506092124 79 205 3.0 6.0 0.00 0.00 0.00 87 1007.8
20260506091005 79 167 3.0 6.0 0.00 0.00 0.00 87 1007.9
20260506090506 79 113 3.0 6.0 0.00 0.00 0.00 87 1008.0
20260506090010 79 182 3.0 9.0 0.00 0.00 0.00 87 1008.0
20260506085452 79 121 4.0 9.0 0.00 0.00 0.00 87 1008.1
20260506084957 79 171 5.0 9.0 0.00 0.00 0.00 87 1008.2
20260506084456 79 188 5.0 9.0 0.00 0.00 0.00 87 1008.3
20260506082710 79 2 5.0 8.0 0.00 0.00 0.00 87 1008.4
20260506082202 79 174 4.0 7.0 0.00 0.00 0.00 87 1008.3
20260506081658 79 193 3.0 7.0 0.00 0.00 0.00 87 1008.3
20260506081200 79 179 3.0 7.0 0.00 0.00 0.00 87 1008.4
20260506080705 79 182 4.0 9.0 0.00 0.00 0.00 87 1008.5
20260506080209 79 173 4.0 9.0 0.00 0.00 0.00 87 1008.5
20260506072444 79 187 5.0 9.0 0.00 0.00 0.00 87 1008.7
20260506071925 79 193 6.0 9.0 0.00 0.00 0.00 87 1008.8
20260506071412 79 2 6.0 11.0 0.00 0.00 0.00 87 1008.7
20260506070906 79 182 7.0 11.0 0.00 0.00 0.00 87 1008.7
20260506070357 79 172 7.0 11.0 0.00 0.00 0.00 87 1008.7
20260506062423 79 2 8.0 14.0 0.00 0.00 0.00 86 1008.8
20260506061901 79 183 8.0 14.0 0.00 0.00 0.00 86 1008.9
20260506061352 79 200 9.0 14.0 0.00 0.00 0.00 86 1008.7
20260506060831 79 182 9.0 14.0 0.00 0.00 0.00 87 1008.6
20260506050532 79 185 12.0 18.0 0.00 0.00 0.00 86 1008.6
20260506043600 79 170 15.0 20.0 0.00 0.00 0.00 86 1008.6
20260506043043 79 2 14.0 19.0 0.00 0.00 0.00 86 1008.6
20260506042550 79 165 13.0 17.0 0.00 0.00 0.00 86 1008.6
20260506042041 79 157 13.0 17.0 0.00 0.00 0.00 86 1008.6
20260506041533 79 172 14.0 20.0 0.00 0.00 0.00 86 1008.6
20260506040346 79 175 14.0 20.0 0.00 0.00 0.00 86 1008.8
20260506035829 79 190 14.0 18.0 0.00 0.00 0.00 86 1008.7
20260506035330 79 173 13.0 18.0 0.00 0.00 0.00 86 1008.7
20260506034832 79 165 12.0 18.0 0.00 0.00 0.00 86 1008.7
20260506034333 79 2 13.0 18.0 0.00 0.00 0.00 86 1008.8
20260506033815 79 2 12.0 17.0 0.00 0.00 0.00 86 1008.7
20260506033322 79 194 13.0 18.0 0.00 0.00 0.00 86 1008.7
20260506032816 79 2 13.0 18.0 0.00 0.00 0.00 86 1008.6
20260506032305 79 2 13.0 18.0 0.00 0.00 0.00 86 1008.7
20260506031743 79 2 13.0 18.0 0.00 0.00 0.00 86 1008.8
20260506031235 79 187 13.0 18.0 0.00 0.00 0.00 86 1008.7
20260506030726 79 2 13.0 18.0 0.00 0.00 0.00 86 1008.6
20260506030226 79 2 12.0 19.0 0.00 0.00 0.00 86 1008.5
20260506025039 79 165 13.0 20.0 0.00 0.00 0.00 86 1008.3
20260506023913 79 189 14.0 20.0 0.00 0.00 0.00 86 1008.1
20260506023421 79 169 14.0 20.0 0.00 0.00 0.00 86 1008.0
20260506022904 79 149 14.0 19.0 0.00 0.00 0.00 86 1007.9
20260506021731 79 2 13.0 19.0 0.00 0.00 0.00 86 1007.8
20260506021219 79 2 13.0 19.0 0.00 0.00 0.00 86 1007.6
20260506020701 79 181 12.0 19.0 0.00 0.00 0.00 86 1007.6
20260506020158 79 190 11.0 18.0 0.00 0.00 0.00 86 1007.6
20260506015646 79 164 11.0 18.0 0.00 0.00 0.00 86 1007.6
20260506015131 79 2 12.0 18.0 0.00 0.00 0.00 86 1007.5
20260506014616 79 2 12.0 18.0 0.00 0.00 0.00 86 1007.5
20260506014118 79 2 12.0 17.0 0.00 0.00 0.00 86 1007.3
20260506013559 79 2 11.0 15.0 0.00 0.00 0.00 85 1007.1
20260506013053 79 2 12.0 17.0 0.00 0.00 0.00 85 1007.1
20260506012546 79 2 12.0 17.0 0.00 0.00 0.00 85 1007.1
20260506012052 79 2 12.0 17.0 0.00 0.00 0.00 85 1007.0
20260506011537 79 184 12.0 17.0 0.00 0.00 0.00 85 1006.9
20260506011032 79 2 11.0 16.0 0.00 0.00 0.00 85 1006.9
20260506010518 80 2 11.0 16.0 0.00 0.00 0.00 85 1006.9
20260506005343 80 170 11.0 16.0 0.00 0.00 0.00 85 1006.8
20260506004834 80 182 11.0 16.0 0.00 0.00 0.00 85 1006.9
20260506004313 80 2 11.0 16.0 0.00 0.00 0.00 85 1006.9
20260506003804 80 2 10.0 16.0 0.00 0.00 0.00 84 1006.9
20260506003243 80 2 10.0 15.0 0.00 0.00 0.00 84 1006.9
20260506002736 80 188 10.0 15.0 0.00 0.00 0.00 84 1007.0
20260506002243 80 2 11.0 15.0 0.00 0.00 0.00 84 1007.0
20260506001729 80 188 11.0 15.0 0.00 0.00 0.00 84 1006.9
20260506000603 80 196 11.0 15.0 0.00 0.00 0.00 84 1007.0
20260506000059 80 170 11.0 17.0 0.00 0.00 0.00 84 1007.0
20260505235605 80 184 12.0 17.0 0.00 0.00 0.00 83 1007.0
20260505234426 80 179 12.0 17.0 0.00 0.00 0.00 83 1007.0
20260505233904 80 2 11.0 16.0 0.00 0.00 0.00 83 1006.9
20260505233357 80 2 12.0 16.0 0.00 0.00 0.00 83 1007.0
20260505232837 81 184 12.0 16.0 0.00 0.00 0.00 83 1007.0
20260505232324 81 2 13.0 16.0 0.00 0.00 0.00 83 1007.0
20260505230542 81 202 12.0 18.0 0.00 0.00 0.00 82 1007.1
20260505230039 81 2 12.0 15.0 0.00 0.00 0.00 82 1007.1
20260505225521 81 2 12.0 15.0 0.00 0.00 0.00 82 1007.1
20260505225022 81 2 12.0 15.0 0.00 0.00 0.00 82 1007.2
20260505224509 81 2 12.0 15.0 0.00 0.00 0.00 82 1007.3
20260505223956 81 176 11.0 15.0 0.00 0.00 0.00 82 1007.2
20260505223446 81 190 11.0 15.0 0.00 0.00 0.00 82 1007.2
20260505222951 81 2 11.0 14.0 0.00 0.00 0.00 82 1007.2
20260505222431 81 2 12.0 14.0 0.00 0.00 0.00 81 1007.2
20260505221930 81 197 11.0 14.0 0.00 0.00 0.00 81 1007.2
20260505221436 82 2 11.0 14.0 0.00 0.00 0.00 82 1007.2
20260505220924 81 173 11.0 15.0 0.00 0.00 0.00 82 1007.3
20260505220425 81 2 11.0 15.0 0.00 0.00 0.00 81 1007.3
20260505215914 81 2 11.0 15.0 0.00 0.00 0.00 81 1007.3
20260505215416 81 182 11.0 15.0 0.00 0.00 0.00 81 1007.4
20260505214918 81 2 11.0 15.0 0.00 0.00 0.00 81 1007.5
20260505214406 81 2 11.0 15.0 0.00 0.00 0.00 81 1007.5
20260505213846 82 2 11.0 16.0 0.00 0.00 0.00 81 1007.5
20260505213340 82 2 11.0 16.0 0.00 0.00 0.00 81 1007.6
20260505212206 82 169 11.0 16.0 0.00 0.00 0.00 80 1007.7
20260505211648 82 185 11.0 14.0 0.00 0.00 0.00 80 1007.9
20260505210507 82 163 10.0 15.0 0.00 0.00 0.00 80 1008.2
20260505210012 82 165 10.0 15.0 0.00 0.00 0.00 80 1008.3
20260505205454 82 193 10.0 15.0 0.00 0.00 0.00 80 1008.3
20260505204327 82 182 10.0 16.0 0.00 0.00 0.00 80 1008.4
20260505203810 82 2 10.0 16.0 0.00 0.00 0.00 80 1008.5
20260505203304 82 2 11.0 16.0 0.00 0.00 0.00 80 1008.6
20260505202802 82 187 11.0 16.0 0.00 0.00 0.00 79 1008.6
20260505202307 82 2 10.0 14.0 0.00 0.00 0.00 80 1008.6
20260505201811 82 2 10.0 14.0 0.00 0.00 0.00 80 1008.6
20260505201317 82 2 10.0 14.0 0.00 0.00 0.00 79 1008.6
20260505200821 82 187 10.0 14.0 0.00 0.00 0.00 80 1008.6
20260505200311 82 2 10.0 13.0 0.00 0.00 0.00 80 1008.7
20260505195808 82 193 10.0 14.0 0.00 0.00 0.00 79 1008.6
20260505195256 82 182 11.0 14.0 0.00 0.00 0.00 80 1008.5
20260505194742 82 190 11.0 15.0 0.00 0.00 0.00 80 1008.7
20260505193623 82 2 11.0 15.0 0.00 0.00 0.00 79 1008.6
20260505193125 82 2 11.0 15.0 0.00 0.00 0.00 80 1008.7
20260505191951 82 190 12.0 16.0 0.00 0.00 0.00 80 1008.7
20260505191437 82 167 12.0 16.0 0.00 0.00 0.00 80 1008.8
20260505190924 82 2 12.0 16.0 0.00 0.00 0.00 80 1008.8
20260505190425 82 2 11.0 16.0 0.00 0.00 0.00 80 1008.8
20260505185911 82 2 11.0 14.0 0.00 0.00 0.00 80 1009.0
20260505185403 82 2 11.0 16.0 0.00 0.00 0.00 80 1009.1